Home > Weather > Korbach > Past weeks

Flag for Germany Weather for the Past 2 Weeks in Korbach, Hesse, Germany

Now
36 °F

Passing clouds.


Feels Like: 30 °F
Forecast: 34 / 58 °F
Wind: 7 mph from Northwest

Location: Fritzlar Airport

Current Time: May 4, 2016 at 6:31:59 AM

Latest Report: May 4, 2016 at 5:20 AM


Visibility: N/A

Pressure: 30.36 "Hg

Humidity: 87%

Dew Point: 32 °F

Location of KorbachLocation

Historic Weather in Korbach — Graph

°F

Korbach Temperature Yesterday

Maximum temperature yesterday: 55 °F (at 5:20 PM)
Minimum temperature yesterday: 41 °F (at 3:20 AM)
Average temperature yesterday: 48 °F

High & Low Weather Summary for the Past Weeks

 TemperatureHumidityPressure
High68 °F (May 2, 4:20 PM)93% (Apr 20, 3:20 AM)30.45 "Hg (Apr 20, 3:20 AM)
Low28 °F (Apr 24, 3:20 AM)19% (Apr 21, 3:20 PM)29.50 "Hg (Apr 26, 2:20 AM)
Average45 °F68%30.01 "Hg
* Reported Apr 19 4:20 AM — May 4 4:20 AM, Korbach, Weather by CustomWeather, © 2016

Note: Actual official high and low records may vary slightly from our data, if they occured in-between our weather recording intervals... More about our weather records

Advertising

Korbach Weather History for the Previous 24 Hours

Scroll right to see more
 ConditionsComfort  
Time TempWeatherWind HumidityBarometerVisibility
4:20 AM
Wed, May 4
37 °FChilly.6 mph87%30.36 "HgN/A
3:20 AM37 °FChilly.6 mph87%30.33 "HgN/A
2:20 AM39 °FChilly.7 mph87%30.33 "HgN/A
1:20 AM41 °FPassing clouds.7 mph81%30.33 "HgN/A
12:20 AM45 °FPassing clouds.5 mph76%30.30 "HgN/A
11:20 PM
Tue, May 3
45 °FPassing clouds.6 mph71%30.30 "HgN/A
10:20 PM50 °FPassing clouds.7 mph54%30.27 "HgN/A
9:20 PM50 °FScattered clouds.5 mph62%30.24 "HgN/A
8:20 PM54 °FScattered clouds.7 mph54%30.21 "HgN/A
7:20 PM52 °FScattered clouds.5 mph62%30.18 "HgN/A
6:20 PM52 °FScattered showers. Broken clouds.12 mph54%30.18 "HgN/A
5:20 PM55 °FBroken clouds.12 mph51%30.15 "HgN/A
4:20 PM54 °FBroken clouds.8 mph63%30.15 "HgN/A
3:20 PM54 °FPartly sunny.6 mph67%30.15 "HgN/A
2:20 PM52 °FBroken clouds.9 mph77%30.15 "HgN/A
1:20 PM48 °FLight rain. Broken clouds.8 mph82%30.15 "HgN/A
12:48 PM48 °FRain. Broken clouds.12 mph82%30.15 "HgN/A
12:20 PM48 °FLight rain. Broken clouds.9 mph87%30.12 "HgN/A
11:20 AM48 °FRain. Broken clouds.12 mph87%30.12 "Hg4 mi
11:03 AM52 °FRain. Partly sunny.5 mph77%30.09 "HgN/A
10:20 AM52 °FLight rain. Broken clouds.2 mph77%30.09 "HgN/A
9:20 AM48 °FBroken clouds.1 mph82%30.07 "HgN/A
8:20 AM46 °FPartly sunny.No wind82%30.07 "HgN/A
7:20 AM43 °FOvercast.1 mph87%30.07 "HgN/A
6:20 AM43 °FOvercast.2 mph87%30.07 "HgN/A
Weather by CustomWeather, © 2016

See weather overviewHow to use our weather pages